Regional Weather Roundup
Issued by NWS

Home | Current Version | Previous Version | Graphics & Text | Print | Product List | Glossary On
Versions: 1 2 3 4 5 6 7 8 9 10 11 12 13 14 15 16 17 18 19 20 21 22 23 24 25 26 27 28 29 30 31 32 33 34 35 36 37 38 39 40 41 42 43 44 45 46 47 48 49 50
000
ASUS43 KOAX 220002
RWRNE

WEATHER ROUNDUP FOR NEBRASKA
NATIONAL WEATHER SERVICE OMAHA NE
600 PM CST FRI NOV 21 2014

NOTES: SATELLITE DATA IS BEING USED TO AUGMENT CLOUD COVER ABOVE
       12000 FEET.
       "FAIR" INDICATES FEW OR NO CLOUDS BELOW 12,000 FEET WITH NO
       SIGNIFICANT WEATHER AND/OR OBSTRUCTIONS TO VISIBILITY.

  * THESE STATIONS DO NOT REPORT WEATHER SUCH AS RAIN...SNOW OR FOG.

NEZ001>004-019>022-054>056-220100-
NEBRASKA PANHANDLE

CITY           SKY/WX    TMP DP  RH WIND       PRES   REMARKS
SCOTTSBLUFF    CLEAR     43  19  38 NW3       29.89R
6HR MIN TEMP:  43; 6HR MAX TEMP:  58;

ALLIANCE       PTCLDY    37  18  46 W9        29.87R WCI  30
6HR MIN TEMP:  37; 6HR MAX TEMP:  58;

CHADRON        CLEAR     38  28  67 W9        29.86S WCI  31
6HR MIN TEMP:  38; 6HR MAX TEMP:  50;

SIDNEY         CLEAR     35  17  47 SE3       29.90R
6HR MIN TEMP:  35; 6HR MAX TEMP:  59;

$$

NEZ057>060-069>072-079>082-220100-
SOUTHWEST NEBRASKA

CITY           SKY/WX    TMP DP  RH WIND       PRES   REMARKS
NORTH PLATTE   PTCLDY    37  25  61 SE3       29.90F
6HR MIN TEMP:  37; 6HR MAX TEMP:  55;

IMPERIAL       CLEAR     43  24  47 SE8       29.90R
6HR MIN TEMP:  42; 6HR MAX TEMP:  58;

MCCOOK         CLEAR     46  32  58 SE5       29.92S
6HR MIN TEMP:  46; 6HR MAX TEMP:  57;

$$

NEZ005>010-023>029-035>040-094-220100-
NORTH CENTRAL NEBRASKA

CITY           SKY/WX    TMP DP  RH WIND       PRES   REMARKS
VALENTINE      PTCLDY    40  30  67 N3        29.85R
6HR MIN TEMP:  40; 6HR MAX TEMP:  52;

AINSWORTH      MOCLDY    40  29  65 S8        29.85R WCI  34
BROKEN BOW     MOCLDY    46  31  55 S10G23    29.92S
6HR MIN TEMP:  44; 6HR MAX TEMP:  53;

ORD            CLOUDY    44  30  57 SE12      29.92F
6HR MIN TEMP:  42; 6HR MAX TEMP:  51;

$$

NEZ041-046>049-061>064-073>077-083>087-220100-
SOUTH CENTRAL NEBRASKA

CITY           SKY/WX    TMP DP  RH WIND       PRES   REMARKS
GRAND ISLAND   PTCLDY    34  25  69 SE3       29.99R
6HR MIN TEMP:  33; 6HR MAX TEMP:  48;

AURORA         CLOUDY    42  30  64 S7        29.99S
HASTINGS       CLOUDY    44  28  53 S5        29.97S
6HR MIN TEMP:  39; 6HR MAX TEMP:  49;

KEARNEY *      CLEAR     37  27  65 SE7       29.98S WCI  32
YORK           CLOUDY    39  32  75 S6        30.00S WCI  35
$$

NEZ011>018-030>034-042>045-220100-
NORTHEAST NEBRASKA

CITY           SKY/WX    TMP DP  RH WIND       PRES   REMARKS
NORFOLK        CLOUDY    36  29  75 S13       29.96F WCI  27
6HR MIN TEMP:  32; 6HR MAX TEMP:  38;

BLAIR          CLOUDY    38  30  70 SE13      30.03S WCI  31
COLUMBUS *     CLOUDY    34  27  75 SE5       30.02S WCI  30
TEKAMAH        MOCLDY    34  26  72 S6        30.04S WCI  29
6HR MIN TEMP:  34; 6HR MAX TEMP:  40;

$$

NEZ050>053-065>068-078-088>093-220100-
SOUTHEAST NEBRASKA

CITY           SKY/WX    TMP DP  RH WIND       PRES   REMARKS
LINCOLN        CLOUDY    41  33  73 S15       30.04S
6HR MIN TEMP:  35; 6HR MAX TEMP:  46;

OMAHA EPPLEY   CLOUDY    39  29  67 S9        30.07S WCI  33
6HR MIN TEMP:  34; 6HR MAX TEMP:  40;

FALLS CITY     CLOUDY    35  34  96 SE6       30.08F FOG     WCI  30
6HR MIN TEMP:  35; 6HR MAX TEMP:  44; 6HR PCP: TRACE;

NEBRASKA CITY  CLOUDY    36  31  82 S10       30.07S WCI  28
$$

NEZ044-045-051>053-067-220100-
OMAHA AREA

CITY           SKY/WX    TMP DP  RH WIND       PRES   REMARKS
OMAHA EPPLEY   CLOUDY    39  29  67 S9        30.07S WCI  33
6HR MIN TEMP:  34; 6HR MAX TEMP:  40;

BLAIR          CLOUDY    38  30  70 SE13      30.03S WCI  31
OFFUTT AFB     CLOUDY    39  31  72 SE15      30.05F WCI  30
WAHOO          CLOUDY    37  29  72 SE7       30.03F WCI  31
$$



USA.gov is the U.S. government's official web portal to all federal, state and local government web resources and services.